Regional Weather Roundup
Issued by NWS

Home | Current Version | Previous Version | Text Only | Print | Product List | Glossary Off
Versions: 1 2 3 4 5 6 7 8 9 10 11 12 13 14 15 16 17 18 19 20 21 22 23 24 25 26 27 28 29 30 31 32 33 34 35 36 37 38 39 40 41 42 43 44 45 46 47 48 49 50

000
ASUS43 KMKX 300400
RWRWI

WISCONSIN REGIONAL WEATHER ROUNDUP
NATIONAL WEATHER SERVICE MILWAUKEE/SULLIVAN WI
1100 PM CDT MON SEP 29 2014

NOTE: "FAIR" INDICATES FEW OR NO CLOUDS BELOW 12,000 FEET WITH NO
SIGNIFICANT WEATHER AND/OR OBSTRUCTIONS TO VISIBILITY.

WIZ001-002-006>008-014>016-023>028-300500-
NORTHWEST WISCONSIN

CITY           SKY/WX    TMP DP  RH WIND       PRES   REMARKS
SUPERIOR ARPT  CLOUDY    45  40  81 E9        30.19F
ASHLAND        CLOUDY    44  39  82 NE8       30.20F
HAYWARD        CLOUDY    42  39  89 NE8G17    30.16F
SIREN          CLOUDY    44  38  82 E6        30.15F
CUMBERLAND     CLOUDY    41  37  87 NE6       30.14S
RICE LAKE      CLOUDY    42  37  82 NE12      30.16S
CHETEK         CLOUDY    42  38  85 NE9       30.15S
LADYSMITH      CLOUDY    42  37  84 NE9       30.16S
EAU CLAIRE     NOT AVBL
MENOMONIE      CLEAR     45  39  79 NE8       30.13S
NEW RICHMOND   CLEAR     42  41  93 NE6       30.13S
OSCEOLA        CLEAR     43  42  98 NE6       30.16S
$$

WIZ003>005-009-010-017-018-300500-
NORTH CENTRAL WISCONSIN

CITY           SKY/WX    TMP DP  RH WIND       PRES   REMARKS
MANITOWISH WTR CLOUDY    37  37  99 N10G16    30.16S WCI  30
ARBOR VITAE    CLOUDY    39  37  91 NE8       30.15S WCI  34
WOODRUFF       CLOUDY    39  37  91 NE8       30.15S WCI  34
RHINELANDER    CLOUDY    38  35  89 NE7       30.15F WCI  33
EAGLE RIVER    CLOUDY    37  36  99 N14       30.14S WCI  28
LAND O LAKES   CLOUDY    37  37  99 NE10      30.16S WCI  30
PHILLIPS       CLOUDY    38  36  90 NE12G20   30.14F WCI  31
TOMAHAWK       CLOUDY    39  36  89 N6        30.15S WCI  35
MEDFORD        CLOUDY    40  37  88 NE10      30.12F WCI  34
MERRILL        CLOUDY    41  37  87 NE10      30.14S
$$

WIZ029-030-035-036-043>047-300500-
CENTRAL WISCONSIN

CITY           SKY/WX    TMP DP  RH WIND       PRES   REMARKS
WAUSAU         CLOUDY    42  36  79 N8G18     30.12S
MOSINEE        CLOUDY    43  39  87 N10G16    30.13R
MARSHFIELD     CLOUDY    45  39  79 NE9       30.10F
STEVENS POINT  CLOUDY    43  38  82 NE10      30.11S
WAUPACA        CLOUDY    48  41  76 NE8       30.10S
WAUTOMA        NOT AVBL
WISC RAPIDS    CLOUDY    47  40  76 N16       30.11S
CAMP DOUGLAS   MOCLDY    45  45 100 NE5       30.09R
$$

WIZ011>013-019>022-031-037>040-048>050-300500-
NORTHEAST WISCONSIN

CITY           SKY/WX    TMP DP  RH WIND       PRES   REMARKS
ANTIGO         CLOUDY    39  36  91 N13G20    30.13R WCI  31
SHAWANO        CLOUDY    46  39  76 N14       30.12S
OCONTO         CLOUDY    43  38  81 N10G17    30.11S
STURGEON BAY   NOT AVBL
GREEN BAY      CLOUDY    45  40  82 N12       30.10S
MANITOWOC      NOT AVBL
APPLETON       CLOUDY    46  37  71 N15       30.09S
CLINTONVILLE   CLOUDY    45  37  76 N8        30.11S
OSHKOSH        CLOUDY    49  42  77 N12       30.08S
$$

WIZ032>034-041-042-053>061-300500-
SOUTHWEST WISCONSIN

CITY           SKY/WX    TMP DP  RH WIND       PRES   REMARKS
LA CROSSE      CLEAR     52  46  80 NE6       30.08S
SPARTA         CLEAR     45  44  95 N3        30.09F
VIROQUA        CLEAR     49  47  94 NE6       30.06F
BOSCOBEL       MOCLDY    54  48  80 NE5       30.06S
PRAIRIE DU CHI CLOUDY    55  47  74 NE8       30.05S
PLATTEVILLE    CLOUDY    54  50  87 NE12G17   30.05S
$$

WIZ056-057-062-063-064-067-068-300500-
SOUTH CENTRAL WISCONSIN

CITY           SKY/WX    TMP DP  RH WIND       PRES   REMARKS
REEDSBURG      CLOUDY    50  45  83 NE9       30.07S
BARABOO/DELLS  CLOUDY    50  46  87 NE7       30.07S
LONE ROCK      NOT AVBL
MINERAL POINT  CLOUDY    54  50  87 NE9G16    30.05S
MADISON        CLOUDY    50  47  89 NE12      30.06S
MIDDLETON      CLOUDY    52  50  93 NE12      30.06S
WATERTOWN      CLOUDY    49  49 100 NE9       30.06R
MONROE         CLOUDY    50  50 100 NE13G21   30.04S
JANESVILLE     CLOUDY    54  46  76 NE9       30.03F
$$

WIZ051-052-058>065-066-070>072-300500-
SOUTHEAST WISCONSIN

CITY           SKY/WX    TMP DP  RH WIND       PRES   REMARKS
MILWAUKEE      CLOUDY    50  45  83 N15       30.05S
WAUKESHA       CLOUDY    46  45  93 N6        30.06S
MILWAUKEE/TIMM CLOUDY    46  45  93 NE9G18    30.07R
RACINE         CLOUDY    52  46  80 MISG      30.05S
BURLINGTON     CLOUDY    49  47  93 NE8       30.04S
KENOSHA        NOT AVBL
FOND DU LAC    CLOUDY    49  43  80 N17G23    30.08S
SHEBOYGAN      CLOUDY    47  42  83 NE8       30.07S
WEST BEND      CLOUDY    46  43  87 NE9       30.06S
JUNEAU         CLOUDY    48  46  91 NE8       30.07S
$$

LSZ147-162-300500-
LAKE SUPERIOR

STATION/POSITION TIME  TEMP    WIND        PRES    WAVE
                       AIR SEA DIR/SP/G            HT/PER
                 (UTC) (F)     (DEG/KT/KT) (MB)    (FT/S)
W MID LAKE BUOY  0250   45 50   20/ 14/ 17 1023.5F   4/ 7
DEVILS ISLAND    0300   45      80/ 17/ 19 1023.7F
SAXON HARBOR     0300   45      80/  5/ 11 1022.4F
$$

LMZ867-665-643>646-300500-
LAKE MICHIGAN

STATION/POSITION TIME  TEMP    WIND        PRES    WAVE
                       AIR SEA DIR/SP/G            HT/PER
                 (UTC) (F)     (DEG/KT/KT) (MB)    (FT/S)
CHAMBERS ISLAND  0300   47     340/ 21/ 27 1019.3S
S GREEN BAY BUOY 0200   48                 1020.3R
N MID LAKE BUOY  0250   47 58  350/ 21/ 25 1017.5R   5/ 5
NORTHPORT PIER   0300   47     350/ 20     1019.0S
KEWAUNEE LAKESHO 0300   46     360/  8/ 14 1017.9R
SHEBOYGAN LAKESH 0300   49 55   10/ 23/ 25 1018.3F
PORT WASHINGTON  0300           10/  6/ 13 1018.3F
ATWATER BUOY     0300   53      20/ 19/ 25 1018.3S
MILWAUKEE LAKESH 0300          360/ 16/ 21   N/A
S MID LAKE BUOY  0250   54 63  360/ 23/ 29 1015.8R   9/ 7
KENOSHA   LAKESH 0300           10/ 24/ 27 1016.6S
$$

TC  - TEMPERATURE IN CELSIUS
VSB - VISIBILITY IN STATUTE MILES
WCI - WIND CHILL INDEX
HX  - HEAT INDEX



USA.gov is the U.S. government's official web portal to all federal, state and local government web resources and services.